Flag for Germany Weather past 2 weeks in Emmerich am Rhein, North Rhine-Westphalia, Germany

Now
63 °F

Passing clouds.


Feels Like: 63 °F
Forecast: 61 / 77 °F
Wind: 5 mph from Northeast

Location: Niederrhein

Current Time: Jul 25, 2014 at 6:02:36 AM

Latest Report: Jul 25, 2014 at 5:20 AM


Visibility: N/A

Pressure: 29.98 "Hg

Humidity: 83%

Dew point: 57 °F

Location of Emmerich am RheinLocation

Historic Weather in Emmerich am Rhein — Graph

°F

Emmerich am Rhein temperature yesterday

Maximum temperature yesterday: 81 °F (at 5:50 PM)
Minimum temperature yesterday: 63 °F (at 5:50 AM)
Average temperature yesterday: 72 °F

Past Weeks' High & Low Weather Summary

 TemperatureHumidityPressure
High93 °F (Jul 19, 3:50 PM)100% (Jul 10, 4:50 AM)30.18 "Hg (Jul 10, 4:50 AM)
Low54 °F (Jul 15, 5:50 AM)28% (Jul 19, 3:50 PM)29.71 "Hg (Jul 13, 5:20 PM)
Average72 °F72%29.96 "Hg
* Reported Jul 10 4:50 AM — Jul 25 4:50 AM, Emmerich am Rhein, Weather by CustomWeather, © 2014

Note: Actual official high and low records may vary slightly from our data, if they occured in-between our weather recording intervals... More about our weather records

Advertising

Emmerich am Rhein weather history for previous 24 hours

 ConditionsComfort  
Time TempWeatherWind HumidityBarometerVisibility
4:50 AM
Jul 25
63 °FPassing clouds.6 mph83%29.98 "HgN/A
11:50 PM
Jul 24
66 °FPassing clouds.5 mph73%30.01 "HgN/A
11:20 PM66 °FSunny.5 mph73%30.01 "Hg10 mi
10:50 PM66 °FPassing clouds.5 mph73%30.01 "HgN/A
10:20 PM68 °FPassing clouds.6 mph69%30.01 "HgN/A
9:50 PM68 °FPassing clouds.6 mph69%29.98 "HgN/A
9:20 PM70 °FPassing clouds.5 mph60%29.98 "HgN/A
8:50 PM72 °FPassing clouds.5 mph57%29.98 "HgN/A
7:50 PM72 °FScattered showers. Scattered clouds.5 mph61%29.98 "HgN/A
7:20 PM72 °FThundershowers. Scattered clouds.8 mph57%29.98 "HgN/A
6:50 PM73 °FThundershowers. Scattered clouds.7 mph50%29.98 "HgN/A
6:20 PM77 °FThundershowers. Scattered clouds.7 mph44%29.95 "HgN/A
5:50 PM81 °FPassing clouds.8 mph45%29.95 "HgN/A
5:20 PM79 °FPassing clouds.8 mph48%29.95 "HgN/A
4:50 PM79 °FPassing clouds.9 mph51%29.95 "HgN/A
4:20 PM77 °FPassing clouds.10 mph51%29.98 "HgN/A
3:50 PM77 °FPassing clouds.8 mph47%29.98 "HgN/A
3:20 PM77 °FPassing clouds.9 mph47%29.98 "HgN/A
2:50 PM79 °FPassing clouds.9 mph48%29.98 "HgN/A
2:20 PM79 °FPassing clouds.8 mph48%29.98 "HgN/A
1:50 PM77 °FPassing clouds.8 mph47%29.98 "HgN/A
1:20 PM77 °FSunny.6 mph51%29.98 "Hg10 mi
12:50 PM77 °FPassing clouds.8 mph54%29.98 "HgN/A
12:20 PM77 °FPassing clouds.8 mph54%30.01 "HgN/A
11:50 AM77 °FSunny.7 mph54%30.01 "Hg10 mi
11:20 AM75 °FPassing clouds.9 mph54%30.01 "HgN/A
10:50 AM73 °FPassing clouds.7 mph57%30.01 "HgN/A
10:20 AM72 °FPassing clouds.7 mph61%30.01 "HgN/A
9:50 AM70 °FPassing clouds.8 mph64%30.01 "HgN/A
9:20 AM70 °FPassing clouds.6 mph64%30.01 "HgN/A
8:50 AM66 °FPassing clouds.5 mph78%30.01 "HgN/A
8:20 AM66 °FPassing clouds.6 mph73%30.01 "HgN/A
7:20 AM64 °FPassing clouds.5 mph78%30.01 "HgN/A
6:50 AM63 °FPassing clouds.5 mph83%30.01 "HgN/A
6:20 AM63 °FPassing clouds.5 mph83%30.01 "HgN/A
Weather by CustomWeather, © 2014

See weather overviewHow to use our weather pages